SWA358 KSFO-KAUS

Flight info

Callsign SWA358
Flight time N/A
Altitude 37000
Route WESLA5 KAYEX LOSHN PMD TNP BXK Q180 EWM FUSCO LAIKS4
Aircraft B738/M-SDE2E3FGHIRWXY/LB1

Departure

Time 2026-05-05 13:50
Airport San Francisco International Airport (KSFO)

Arrival

Time N/A
Airport Austin Bergstrom International Airport (KAUS)
Time Latitude Longitude Altitude Speed Heading
2026-05-05 13:11 37.61676 -122.38165 32 ft 0 kts 13°
2026-05-05 13:41 37.61664 -122.38168 32 ft 2 kts 13°
2026-05-05 13:41 37.61649 -122.38173 32 ft 2 kts 14°
2026-05-05 13:41 37.61636 -122.38180 32 ft 2 kts 40°
2026-05-05 13:41 37.61625 -122.38194 32 ft 2 kts 58°
2026-05-05 13:42 37.61620 -122.38210 32 ft 0 kts 76°
2026-05-05 13:42 37.61619 -122.38218 32 ft 1 kts 80°
2026-05-05 13:42 37.61618 -122.38219 32 ft 0 kts 79°
2026-05-05 13:44 37.61620 -122.38205 32 ft 4 kts 86°
2026-05-05 13:44 37.61611 -122.38160 32 ft 3 kts 117°
2026-05-05 13:44 37.61600 -122.38133 32 ft 3 kts 117°
2026-05-05 13:44 37.61582 -122.38089 31 ft 6 kts 118°
2026-05-05 13:45 37.61577 -122.38026 31 ft 8 kts 55°
2026-05-05 13:45 37.61630 -122.37985 30 ft 9 kts 27°
2026-05-05 13:45 37.61677 -122.37920 29 ft 11 kts 81°
2026-05-05 13:45 37.61668 -122.37807 28 ft 13 kts 97°
2026-05-05 13:46 37.61657 -122.37693 26 ft 13 kts 97°
2026-05-05 13:46 37.61643 -122.37560 24 ft 19 kts 97°
2026-05-05 13:46 37.61625 -122.37380 21 ft 21 kts 97°
2026-05-05 13:46 37.61586 -122.37196 18 ft 23 kts 118°
2026-05-05 13:47 37.61495 -122.36980 15 ft 30 kts 121°
2026-05-05 13:47 37.61376 -122.36795 13 ft 24 kts 128°
2026-05-05 13:47 37.61294 -122.36613 12 ft 23 kts 118°
2026-05-05 13:47 37.61223 -122.36440 12 ft 21 kts 118°
2026-05-05 13:48 37.61154 -122.36277 12 ft 20 kts 118°
2026-05-05 13:48 37.61089 -122.36124 11 ft 18 kts 118°
2026-05-05 13:48 37.61054 -122.35975 11 ft 17 kts 86°
2026-05-05 13:48 37.61129 -122.35883 11 ft 15 kts 26°
2026-05-05 13:49 37.61209 -122.35928 11 ft 13 kts 298°
2026-05-05 13:49 37.61219 -122.35950 11 ft 0 kts 298°
2026-05-05 13:50 37.61274 -122.36081 12 ft 50 kts 298°
2026-05-05 13:50 37.61558 -122.36757 14 ft 121 kts 298°
2026-05-05 13:50 37.62040 -122.37888 178 ft 163 kts 298°
2026-05-05 13:50 37.62604 -122.39101 982 ft 161 kts 300°
2026-05-05 13:51 37.63143 -122.40311 1634 ft 162 kts 300°
2026-05-05 13:51 37.63701 -122.41612 2064 ft 175 kts 300°
2026-05-05 13:51 37.64307 -122.43005 2499 ft 189 kts 300°
2026-05-05 13:51 37.64966 -122.44508 2969 ft 203 kts 300°
2026-05-05 13:52 37.65671 -122.46113 3408 ft 219 kts 301°
2026-05-05 13:52 37.66334 -122.47624 3830 ft 232 kts 300°
2026-05-05 13:52 37.66965 -122.49179 4365 ft 240 kts 293°
2026-05-05 13:52 37.67200 -122.51331 4806 ft 261 kts 266°
2026-05-05 13:53 37.66604 -122.53507 5483 ft 272 kts 242°
2026-05-05 13:53 37.65393 -122.55354 6179 ft 281 kts 224°
2026-05-05 13:53 37.63683 -122.56620 6865 ft 289 kts 197°
2026-05-05 13:53 37.61687 -122.56760 7528 ft 294 kts 168°
2026-05-05 13:54 37.59818 -122.55817 8247 ft 294 kts 149°
2026-05-05 13:54 37.58047 -122.54497 8917 ft 298 kts 146°
2026-05-05 13:54 37.56261 -122.53091 9575 ft 303 kts 145°
2026-05-05 13:54 37.54489 -122.51705 10239 ft 307 kts 144°
2026-05-05 13:55 37.52620 -122.50265 10602 ft 323 kts 145°
2026-05-05 13:55 37.50649 -122.48764 10984 ft 337 kts 145°
2026-05-05 13:55 37.48724 -122.47018 11298 ft 348 kts 134°
2026-05-05 13:55 37.47032 -122.44804 11641 ft 359 kts 127°
2026-05-05 13:56 37.45441 -122.42358 12079 ft 368 kts 124°
2026-05-05 13:56 37.43850 -122.39785 12762 ft 370 kts 123°
2026-05-05 13:56 37.42284 -122.37259 13438 ft 372 kts 123°
2026-05-05 13:56 37.40669 -122.34691 14115 ft 375 kts 123°
2026-05-05 13:57 37.39039 -122.32130 14756 ft 377 kts 123°
2026-05-05 13:57 37.37381 -122.29544 15339 ft 382 kts 123°
2026-05-05 13:57 37.35711 -122.26957 15858 ft 387 kts 124°
2026-05-05 13:57 37.34017 -122.24349 16505 ft 388 kts 124°
2026-05-05 13:58 37.32311 -122.21722 17077 ft 391 kts 123°
2026-05-05 13:58 37.30595 -122.19074 17571 ft 396 kts 123°
2026-05-05 13:58 37.28845 -122.16374 18076 ft 400 kts 123°
2026-05-05 13:58 37.27090 -122.13673 18725 ft 400 kts 123°
2026-05-05 13:59 37.23552 -122.08219 19745 ft 407 kts 123°
2026-05-05 13:59 37.21741 -122.05441 20257 ft 410 kts 123°
2026-05-05 14:00 37.18105 -121.99873 21216 ft 417 kts 123°
2026-05-05 14:00 37.16883 -121.98003 21512 ft 420 kts 123°
2026-05-05 14:00 37.14423 -121.94241 22168 ft 423 kts 123°
2026-05-05 14:00 37.12560 -121.91387 22588 ft 426 kts 123°
2026-05-05 14:01 37.10667 -121.88489 23015 ft 429 kts 123°
2026-05-05 14:01 37.08796 -121.85627 23503 ft 431 kts 123°
2026-05-05 14:01 37.06888 -121.82707 23849 ft 435 kts 123°
2026-05-05 14:01 37.04965 -121.79767 24398 ft 435 kts 122°
2026-05-05 14:02 37.03059 -121.76857 24840 ft 436 kts 122°
2026-05-05 14:02 37.01135 -121.73925 25217 ft 440 kts 122°
2026-05-05 14:02 36.99190 -121.70966 25657 ft 441 kts 122°
2026-05-05 14:02 36.97236 -121.67996 26112 ft 443 kts 122°
2026-05-05 14:03 36.95268 -121.65010 26521 ft 445 kts 122°
2026-05-05 14:03 36.93298 -121.62024 26910 ft 447 kts 122°
2026-05-05 14:03 36.91318 -121.59027 27354 ft 448 kts 122°
2026-05-05 14:03 36.89349 -121.56042 27632 ft 452 kts 122°